| time (UTC) | temp F | wind direction | speed MPH | gust MPH | rain 1hr in | rain 24hr in | rain mn in | humidity % | barometer mb |
| 20260503204210 | 59 | 263 | 3.0 | 12.0 | 0.00 | 0.01 | 0.00 | 31 | 1021.3 |
| 20260503201719 | 59 | 266 | 3.0 | 10.0 | 0.00 | 0.01 | 0.00 | 31 | 1021.3 |
| 20260503200206 | 59 | 350 | 3.0 | 9.0 | 0.00 | 0.01 | 0.00 | 32 | 1021.3 |
| 20260503195706 | 59 | 269 | 2.0 | 7.0 | 0.00 | 0.01 | 0.00 | 32 | 1021.3 |
| 20260503195206 | 59 | 297 | 5.0 | 7.0 | 0.00 | 0.01 | 0.00 | 32 | 1021.3 |
| 20260503194706 | 59 | 300 | 5.0 | 12.0 | 0.00 | 0.01 | 0.00 | 32 | 1021.3 |
| 20260503194209 | 59 | 291 | 5.0 | 12.0 | 0.00 | 0.01 | 0.00 | 33 | 1021.3 |
| 20260503191715 | 58 | 302 | 3.0 | 6.0 | 0.00 | 0.01 | 0.00 | 33 | 1021.3 |
| 20260503185707 | 58 | 292 | 3.0 | 7.0 | 0.00 | 0.01 | 0.00 | 34 | 1021.3 |
| 20260503185209 | 58 | 282 | 2.0 | 7.0 | 0.00 | 0.01 | 0.00 | 34 | 1021.3 |
| 20260503184707 | 57 | 341 | 2.0 | 9.0 | 0.00 | 0.01 | 0.00 | 35 | 1021.3 |
| 20260503182220 | 58 | 251 | 2.0 | 5.0 | 0.00 | 0.01 | 0.00 | 35 | 1021.3 |
| 20260503180209 | 56 | 279 | 3.0 | 8.0 | 0.00 | 0.01 | 0.00 | 36 | 1021.3 |
| 20260503175706 | 56 | 245 | 2.0 | 8.0 | 0.00 | 0.01 | 0.00 | 37 | 1021.3 |
| 20260503175205 | 55 | 300 | 2.0 | 3.0 | 0.00 | 0.01 | 0.00 | 38 | 1021.3 |
| 20260503174207 | 55 | 235 | 3.0 | 8.0 | 0.00 | 0.01 | 0.00 | 36 | 1021.3 |
| 20260503171715 | 56 | 235 | 2.0 | 5.0 | 0.00 | 0.01 | 0.00 | 36 | 1021.3 |
| 20260503170208 | 57 | 268 | 3.0 | 7.0 | 0.00 | 0.01 | 0.00 | 36 | 1021.3 |
| 20260503160206 | 55 | 297 | 3.0 | 13.0 | 0.00 | 0.01 | 0.00 | 37 | 1021.3 |
| 20260503150207 | 55 | 236 | 2.0 | 5.0 | 0.00 | 0.01 | 0.00 | 41 | 1021.3 |
| 20260503140208 | 53 | 5 | 3.0 | 6.0 | 0.00 | 0.01 | 0.00 | 46 | 1021.3 |
| 20260503130209 | 50 | 331 | 3.0 | 6.0 | 0.00 | 0.02 | 0.00 | 52 | 1021.3 |
| 20260503120206 | 46 | 239 | 2.0 | 5.0 | 0.00 | 0.02 | 0.00 | 56 | 1021.3 |
| 20260503100206 | 45 | 237 | 1.0 | 2.0 | 0.00 | 0.02 | 0.00 | 57 | 1021.3 |
| 20260503081211 | 48 | 325 | 2.0 | 6.0 | 0.00 | 0.02 | 0.00 | 51 | 1021.3 |
| 20260503071219 | 49 | 258 | 0.0 | 3.0 | 0.00 | 0.02 | 0.00 | 54 | 1021.3 |
| 20260503070207 | 49 | 242 | 1.0 | 2.0 | 0.00 | 0.02 | 0.00 | 54 | 1021.3 |
| 20260503040209 | 50 | 308 | 1.0 | 2.0 | 0.00 | 0.02 | 0.00 | 58 | 1021.3 |
| 20260503034208 | 50 | 312 | 0.0 | 1.0 | 0.00 | 0.02 | 0.00 | 59 | 1021.3 |
| 20260503024212 | 49 | 246 | 0.0 | 0.0 | 0.00 | 0.02 | 0.00 | 64 | 1021.3 |
| 20260503022208 | 49 | 246 | 0.0 | 0.0 | 0.00 | 0.02 | 0.00 | 67 | 1021.3 |
| 20260503020206 | 49 | 246 | 0.0 | 0.0 | 0.00 | 0.02 | 0.00 | 71 | 1021.3 |
| 20260503012707 | 50 | 246 | 0.0 | 0.0 | 0.00 | 0.02 | 0.00 | 78 | 1021.3 |
| 20260503010209 | 51 | 246 | 0.0 | 3.0 | 0.00 | 0.02 | 0.00 | 77 | 1021.3 |
| 20260503003212 | 53 | 202 | 0.0 | 0.0 | 0.00 | 0.02 | 0.00 | 71 | 1021.3 |
| 20260502232712 | 57 | 200 | 1.0 | 3.0 | 0.00 | 0.02 | 0.00 | 65 | 1021.3 |
| 20260502230207 | 58 | 238 | 0.0 | 6.0 | 0.00 | 0.02 | 0.00 | 63 | 1021.3 |
| 20260502220207 | 61 | 248 | 0.0 | 3.0 | 0.00 | 0.02 | 0.00 | 37 | 1021.3 |
| 20260502213212 | 60 | 253 | 2.0 | 6.0 | 0.00 | 0.02 | 0.00 | 39 | 1021.3 |
| 20260502210211 | 61 | 320 | 1.0 | 6.0 | 0.00 | 0.02 | 0.00 | 42 | 1021.3 |